Starlink 3374

operational
NORAD ID: 51112 Int'l Des: 2022-005 Owner: SPXS Country: US Constellation: starlink
LEOCIRCULAR

关于 Starlink 3374

正在加载描述...

实时位置

正在加载3D地球...

即将过境

高度历史

Altitude vs Time

uPlot chart will show altitude changes over time

两行轨道根数

1 51112U 22005J 25257.56397106 -.00000651 00000-0 -22801-4 0 9998
2 51112 53.2206 359.7546 0001330 87.0068 273.1077 15.08835719202294
Epoch: Sep 14, 2025 • Age: 21 hours

当前状态

高度 545.1 km
速度 7.60 km/s
星下点 51.88°N, 85.73°W
发射日期 Jan 19, 2022
运行时间 3.6 years
类型 internet

技术详情

分类 Payload
质量 297.00 kg
干质量 275.00 kg
总质量 297.00 kg
长度 0.20 m
直径 2.80 m
跨度 9.00 m
形状 Box + pan
制造商 SPXS
平台类型 Starlink
阶段状态 In Orbit
所有者/国家 SPXS/US

大型星座

Loading constellations...